Regional Weather Roundup
Issued by NWS Northern Indiana

Home | Current Version | Previous Version | Graphics & Text | Print | Product List | Glossary On
Versions: 1 2 3 4 5 6 7 8 9 10 11 12 13 14 15 16 17 18 19 20 21 22 23 24 25 26 27 28 29 30 31 32 33 34 35 36 37 38 39 40 41 42 43 44 45 46 47 48 49 50
000
ASUS43 KIWX 091810
RWRIWX

KIWX WEATHER ROUNDUP
NATIONAL WEATHER SERVICE NORTHERN INDIANA
100 PM EST FRI DEC 09 2016

NOTE: "FAIR" INDICATES FEW OR NO CLOUDS BELOW 12,000 FEET WITH NO
SIGNIFICANT WEATHER AND/OR OBSTRUCTIONS TO VISIBILITY.

* THESE STATIONS ARE NOT UNDER NWS QUALITY CONTROL. THEY ALSO MAY NOT
  REPORT WEATHER SUCH AS PRECIPITATION OR FOG.

INZ001>027-091900-
NORTHERN INDIANA

CITY           SKY/WX    TMP DP  RH WIND       PRES   REMARKS
GARY*          CLOUDY    28  16  59 W13       30.52F WCI  18
VALPARAISO     CLOUDY    27  15  61 W9        30.50F WCI  18
6HR MIN TEMP:  23; 6HR MAX TEMP:  28;

MICHIGAN CITY* FLURRIES  28  18  64 W7G16     30.50S WCI  21
LAPORTE*       LGT SNOW  24  17  75 W12       30.49F WCI  13
6HR MIN TEMP:  22; 6HR MAX TEMP:  24;

KNOX*          PTSUNNY   28  -6  22 W10       30.49F WCI  19
SOUTH BEND     LGT SNOW  25  22  88 W9        30.47F VSB 1   WCI  15
6HR MIN TEMP:  20; 6HR MAX TEMP:  26; 6HR PCP: TRACE;

ELKHART*       FLURRIES  28  21  74 W17       30.45F WCI  16
GOSHEN         LGT SNOW  27  20  75 W17       30.46S WCI  14
6HR MIN TEMP:  21; 6HR MAX TEMP:  29; 6HR PCP: TRACE;

MONTICELLO*    CLOUDY    27  14  57 NW10      30.51F WCI  17
6HR MIN TEMP:  21; 6HR MAX TEMP:  28;

LOGANSPORT*    PTSUNNY   30  18  59 NW10G16   30.51F WCI  21
ROCHESTER*     PTSUNNY   32  19  59 NW14      30.48F WCI  22
WARSAW*        FLURRIES  30  18  59 W16       30.46F WCI  19
ANGOLA*        CLOUDY    27  21  80 W8        30.41F WCI  18
FORT WAYNE     CLOUDY    28  19  69 W13       30.46F WCI  17
6HR MIN TEMP:  21; 6HR MAX TEMP:  28; 6HR PCP: TRACE;

HUNTINGTON*    CLOUDY    27  18  70 W13       30.47F WCI  16
6HR MIN TEMP:  20; 6HR MAX TEMP:  27;

PERU/GRISSOM   CLOUDY    28  18  67 W10       30.47F WCI  18
6HR MIN TEMP:  21; 6HR MAX TEMP:  28;

MARION*        CLOUDY    24  19  81 W12       30.50F WCI  13
6HR MIN TEMP:  16; 6HR MAX TEMP:  89;


$$
INZ028>050-091900-
CENTRAL INDIANA

CITY           SKY/WX    TMP DP  RH WIND       PRES   REMARKS
LAFAYETTE      CLOUDY    26  18  71 W9        30.53F WCI  17
6HR MIN TEMP:  22; 6HR MAX TEMP:  27; 6HR PCP: TRACE;

KOKOMO*        CLOUDY    26  20  77 W15       30.50F WCI  14
6HR MIN TEMP:  19; 6HR MAX TEMP:  26; 6HR PCP: TRACE;

MUNCIE*        CLOUDY    25  18  74 W12       30.49F WCI  14
6HR MIN TEMP:  18; 6HR MAX TEMP:  25;

INDIANAPOLIS   FLURRIES  27  15  61 W10G17    30.52F WCI  17
6HR MIN TEMP:  20; 6HR MAX TEMP:  29; 6HR PCP: TRACE;


$$
MIZ043>046-050>051-056>058-064>065-071>073-077>080-091900-
SOUTHWEST LOWER MICHIGAN

CITY           SKY/WX    TMP DP  RH WIND       PRES   REMARKS
BATTLE CREEK   LGT SNOW  27  22  81 NW14      30.40F WCI  16
6HR MIN TEMP:  25; 6HR MAX TEMP:  28; 6HR PCP:  0.01;

BENTON HARBOR  FLURRIES  28  16  60 W12       30.46F WCI  18
6HR MIN TEMP:  28; 6HR MAX TEMP:  31; 6HR PCP:  0.01;

COLDWATER*     CLOUDY    29  23  80 W13       30.40F WCI  18
6HR MIN TEMP:  23; 6HR MAX TEMP:  29;

HILLSDALE*     LGT SNOW  28  23  80 W10       30.37F WCI  19
HOLLAND        LGT SNOW  27  18  69 W13G20    30.43F WCI  16
6HR MIN TEMP:  27; 6HR MAX TEMP:  30; 6HR PCP: TRACE;

GRAND RAPIDS   LGT SNOW  27  19  72 NW10      30.40F WCI  17
6HR MIN TEMP:  26; 6HR MAX TEMP:  28; 6HR PCP: TRACE;

KALAMAZOO      LGT SNOW  28  22  78 W10       30.41F WCI  19
6HR MIN TEMP:  26; 6HR MAX TEMP:  28; 6HR PCP:  0.01;

STURGIS*       CLOUDY    31  22  69 W12       30.41F WCI  21
6HR MIN TEMP:  22; 6HR MAX TEMP:  31;

THREE RIVERS*  CLOUDY    29  21  74 W17G23    30.43F WCI  16
6HR MIN TEMP:  23; 6HR MAX TEMP:  30;


$$
OHZ001>008-015>018-024>025-091900-
NORTHWEST OHIO

CITY           SKY/WX    TMP DP  RH WIND       PRES   REMARKS
WAUSEON*       FLURRIES  28  25  86 W9        30.41F WCI  20
DEFIANCE       CLOUDY    30  21  69 W9G18     30.44F WCI  22
6HR MIN TEMP:  24; 6HR MAX TEMP:  30; 6HR PCP: TRACE;

FINDLAY        LGT SNOW  27  20  75 W16       30.42F WCI  15
6HR MIN TEMP:  22; 6HR MAX TEMP:  28; 6HR PCP: TRACE;

TOLEDO EXPRESS LGT SNOW  28  25  88 W13       30.42R FOG     WCI  17
6HR MIN TEMP:  22; 6HR MAX TEMP:  30; 6HR PCP: TRACE;

TOLEDO METCALF PTSUNNY   32  21  64 W14       30.41F WCI  22
6HR MIN TEMP:  23; 6HR MAX TEMP:  32; 6HR PCP: TRACE;

LIMA           LGT SNOW  24  21  88 W16       30.44F FOG     WCI  11
6HR MIN TEMP:  20; 6HR MAX TEMP:  24; 6HR PCP: TRACE;


$$
AND FOR LAKE MICHIGAN COASTAL AND OPEN LAKE BUOY OBSERVATIONS

STATION/POSITION TEMP    WIND        PRES    VSBY  WAVE
                 AIR SEA DIR/SP/G                  HT/PER
                 (F)     (DEG/KT/KT) (MB)    (MI)  (FT/S)
CALUMET HARBOR    26     280/  5/ 10 1032.4F
BURNS HARBOR      27     280/  8/ 13 1033.2F
SAINT JOSEPH      29     290/ 12/ 19 1032.2

$$
&&



USA.gov is the U.S. government's official web portal to all federal, state and local government web resources and services.